| time (UTC) | temp C | wind direction | speed KPH | gust KPH | rain 1hr cm | rain 24hr cm | rain mn cm | humidity % | barometer mb |
| 20260901161511 | 20 | 136 | 12.9 | 19.3 | 0.00 | 0.00 | 0.00 | 44 | 1009.3 |
| 20260901160117 | 19 | 157 | 4.8 | 9.7 | 0.00 | 0.00 | 0.00 | 45 | 1009.3 |
| 20260901154553 | 18 | 197 | 8.0 | 12.9 | 0.00 | 0.00 | 0.00 | 47 | 1009.6 |
| 20260901153105 | 18 | 164 | 8.0 | 16.1 | 0.00 | 0.00 | 0.00 | 48 | 1009.7 |
| 20260901151533 | 17 | 140 | 8.0 | 11.3 | 0.00 | 0.00 | 0.00 | 51 | 1009.8 |
| 20260901150033 | 16 | 9 | 0.0 | 3.2 | 0.00 | 0.00 | 0.00 | 56 | 1009.8 |
| 20260901144516 | 15 | 9 | 3.2 | 6.4 | 0.00 | 0.00 | 0.00 | 63 | 1009.7 |
| 20260901143019 | 13 | 9 | 3.2 | 9.7 | 0.00 | 0.00 | 0.00 | 68 | 1009.7 |
| 20260901141557 | 12 | 9 | 4.8 | 8.0 | 0.00 | 0.00 | 0.00 | 71 | 1009.7 |
| 20260901140057 | 11 | 9 | 4.8 | 8.0 | 0.00 | 0.00 | 0.00 | 75 | 1009.4 |
| 20260901134540 | 10 | 9 | 4.8 | 8.0 | 0.00 | 0.00 | 0.00 | 78 | 1009.4 |
| 20260901133037 | 9 | 9 | 6.4 | 9.7 | 0.00 | 0.00 | 0.00 | 79 | 1009.6 |
| 20260901131519 | 8 | 342 | 6.4 | 9.7 | 0.00 | 0.00 | 0.00 | 78 | 1009.5 |
| 20260901130025 | 8 | 342 | 4.8 | 8.0 | 0.00 | 0.00 | 0.00 | 78 | 1009.6 |
| 20260901124605 | 8 | 342 | 4.8 | 9.7 | 0.00 | 0.00 | 0.00 | 78 | 1009.7 |
| 20260901123115 | 8 | 9 | 6.4 | 11.3 | 0.00 | 0.00 | 0.00 | 77 | 1009.6 |
| 20260901121545 | 8 | 348 | 8.0 | 11.3 | 0.00 | 0.00 | 0.00 | 77 | 1009.7 |
| 20260901120049 | 8 | 10 | 8.0 | 12.9 | 0.00 | 0.00 | 0.00 | 78 | 1009.7 |
| 20260901114523 | 8 | 9 | 11.3 | 14.5 | 0.00 | 0.00 | 0.00 | 77 | 1009.8 |
| 20260901113022 | 8 | 5 | 11.3 | 12.9 | 0.00 | 0.00 | 0.00 | 77 | 1010.0 |
| 20260901111503 | 8 | 11 | 9.7 | 12.9 | 0.00 | 0.00 | 0.00 | 78 | 1010.1 |
| 20260901110002 | 8 | 30 | 8.0 | 11.3 | 0.00 | 0.00 | 0.00 | 77 | 1010.0 |
| 20260901104548 | 9 | 36 | 8.0 | 11.3 | 0.00 | 0.00 | 0.00 | 75 | 1009.9 |
| 20260901103044 | 8 | 86 | 4.8 | 8.0 | 0.00 | 0.00 | 0.00 | 77 | 1009.9 |
| 20260901101525 | 8 | 86 | 4.8 | 9.7 | 0.00 | 0.00 | 0.00 | 77 | 1010.0 |
| 20260901100023 | 8 | 74 | 6.4 | 9.7 | 0.00 | 0.00 | 0.00 | 75 | 1010.2 |
| 20260901094601 | 8 | 84 | 8.0 | 11.3 | 0.00 | 0.00 | 0.00 | 72 | 1010.1 |
| 20260901093057 | 10 | 103 | 6.4 | 9.7 | 0.00 | 0.00 | 0.00 | 72 | 1010.2 |
| 20260901091539 | 10 | 99 | 4.8 | 8.0 | 0.00 | 0.00 | 0.00 | 71 | 1010.1 |
| 20260901090037 | 10 | 88 | 4.8 | 8.0 | 0.00 | 0.00 | 0.00 | 70 | 1010.2 |
| 20260901084519 | 10 | 112 | 4.8 | 11.3 | 0.00 | 0.00 | 0.00 | 72 | 1010.3 |
| 20260901083021 | 10 | 108 | 8.0 | 12.9 | 0.00 | 0.00 | 0.00 | 70 | 1010.4 |
| 20260901081557 | 10 | 106 | 6.4 | 12.9 | 0.00 | 0.00 | 0.00 | 67 | 1010.5 |
| 20260901080055 | 12 | 139 | 11.3 | 16.1 | 0.00 | 0.00 | 0.00 | 66 | 1010.6 |
| 20260901074538 | 12 | 134 | 11.3 | 12.9 | 0.00 | 0.00 | 0.00 | 66 | 1010.6 |
| 20260901073038 | 11 | 128 | 11.3 | 12.9 | 0.00 | 0.00 | 0.00 | 67 | 1010.8 |
| 20260901071518 | 12 | 125 | 9.7 | 14.5 | 0.00 | 0.00 | 0.00 | 61 | 1010.7 |
| 20260901070017 | 12 | 129 | 11.3 | 16.1 | 0.00 | 0.00 | 0.00 | 66 | 1010.6 |
| 20260901064557 | 11 | 102 | 4.8 | 9.7 | 0.00 | 0.00 | 0.00 | 61 | 1010.8 |
| 20260901063106 | 12 | 119 | 11.3 | 12.9 | 0.00 | 0.00 | 0.00 | 64 | 1010.7 |
| 20260901061543 | 13 | 130 | 9.7 | 14.5 | 0.00 | 0.00 | 0.00 | 60 | 1010.8 |
| 20260901060035 | 12 | 115 | 6.4 | 8.0 | 0.00 | 0.00 | 0.00 | 62 | 1010.9 |
| 20260901054514 | 12 | 115 | 8.0 | 12.9 | 0.00 | 0.00 | 0.00 | 60 | 1010.9 |
| 20260901053016 | 14 | 125 | 11.3 | 16.1 | 0.00 | 0.00 | 0.00 | 57 | 1011.0 |
| 20260901051552 | 15 | 134 | 14.5 | 16.1 | 0.00 | 0.00 | 0.00 | 54 | 1011.1 |
| 20260901050052 | 15 | 137 | 14.5 | 19.3 | 0.00 | 0.00 | 0.00 | 53 | 1011.1 |
| 20260901044534 | 15 | 133 | 14.5 | 17.7 | 0.00 | 0.00 | 0.00 | 52 | 1011.2 |
| 20260901043037 | 15 | 119 | 12.9 | 16.1 | 0.00 | 0.00 | 0.00 | 50 | 1011.2 |
| 20260901041516 | 14 | 103 | 9.7 | 14.5 | 0.00 | 0.00 | 0.00 | 50 | 1011.3 |
| 20260901040017 | 13 | 98 | 8.0 | 11.3 | 0.00 | 0.00 | 0.00 | 50 | 1011.2 |
| 20260901034553 | 15 | 92 | 11.3 | 14.5 | 0.00 | 0.00 | 0.00 | 46 | 1011.2 |
| 20260901033051 | 16 | 98 | 9.7 | 12.9 | 0.00 | 0.00 | 0.00 | 45 | 1011.1 |
| 20260901031532 | 16 | 91 | 11.3 | 12.9 | 0.00 | 0.00 | 0.00 | 47 | 1010.8 |
| 20260901030028 | 16 | 76 | 3.2 | 8.0 | 0.00 | 0.00 | 0.00 | 45 | 1010.8 |
| 20260901024508 | 17 | 60 | 3.2 | 6.4 | 0.00 | 0.00 | 0.00 | 44 | 1010.7 |
| 20260901023003 | 17 | 232 | 4.8 | 8.0 | 0.00 | 0.00 | 0.00 | 42 | 1010.7 |
| 20260901021545 | 19 | 232 | 3.2 | 6.4 | 0.00 | 0.00 | 0.00 | 38 | 1010.6 |
| 20260901020049 | 21 | 232 | 3.2 | 4.8 | 0.00 | 0.00 | 0.00 | 34 | 1010.7 |
| 20260901014530 | 23 | 232 | 1.6 | 3.2 | 0.00 | 0.00 | 0.00 | 32 | 1010.7 |
| 20260901013029 | 23 | 232 | 0.0 | 1.6 | 0.00 | 0.00 | 0.00 | 31 | 1010.8 |
| 20260901011526 | 23 | 232 | 0.0 | 6.4 | 0.00 | 0.00 | 0.00 | 31 | 1010.8 |
| 20260901010026 | 23 | 284 | 4.8 | 12.9 | 0.00 | 0.00 | 0.00 | 31 | 1010.9 |
| 20260901004525 | 23 | 236 | 6.4 | 12.9 | 0.00 | 0.00 | 0.00 | 31 | 1011.0 |
| 20260901003025 | 23 | 240 | 9.7 | 14.5 | 0.00 | 0.00 | 0.00 | 31 | 1011.1 |
| 20260901001524 | 24 | 223 | 9.7 | 14.5 | 0.00 | 0.00 | 0.00 | 31 | 1011.0 |
| 20260901000022 | 23 | 281 | 8.0 | 17.7 | 0.00 | 0.00 | 0.00 | 32 | 1010.9 |
| 20260831234506 | 24 | 258 | 6.4 | 16.1 | 0.00 | 0.00 | 0.00 | 32 | 1011.0 |
| 20260831233004 | 23 | 224 | 3.2 | 12.9 | 0.00 | 0.00 | 0.00 | 32 | 1011.1 |
| 20260831231550 | 23 | 303 | 12.9 | 17.7 | 0.00 | 0.00 | 0.00 | 33 | 1011.1 |
| 20260831230043 | 23 | 232 | 8.0 | 22.5 | 0.00 | 0.00 | 0.00 | 33 | 1011.1 |
| 20260831224523 | 23 | 238 | 11.3 | 17.7 | 0.00 | 0.00 | 0.00 | 33 | 1011.2 |
| 20260831223022 | 23 | 321 | 11.3 | 19.3 | 0.00 | 0.00 | 0.00 | 34 | 1011.3 |
| 20260831221504 | 23 | 178 | 12.9 | 29.0 | 0.00 | 0.00 | 0.00 | 34 | 1011.5 |
| 20260831220003 | 23 | 219 | 11.3 | 20.9 | 0.00 | 0.00 | 0.00 | 35 | 1011.3 |
| 20260831214545 | 23 | 225 | 11.3 | 24.1 | 0.00 | 0.00 | 0.00 | 35 | 1011.3 |
| 20260831213043 | 23 | 216 | 16.1 | 22.5 | 0.00 | 0.00 | 0.00 | 35 | 1011.4 |
| 20260831211532 | 23 | 285 | 11.3 | 19.3 | 0.00 | 0.00 | 0.00 | 36 | 1011.4 |
| 20260831210033 | 23 | 243 | 12.9 | 20.9 | 0.00 | 0.00 | 0.00 | 36 | 1011.5 |
| 20260831204529 | 22 | 181 | 9.7 | 27.4 | 0.00 | 0.00 | 0.00 | 37 | 1011.7 |
| 20260831203026 | 22 | 235 | 16.1 | 27.4 | 0.00 | 0.00 | 0.00 | 37 | 1011.8 |
| 20260831201528 | 22 | 243 | 4.8 | 19.3 | 0.00 | 0.00 | 0.00 | 38 | 1011.8 |
| 20260831200029 | 22 | 245 | 17.7 | 30.6 | 0.00 | 0.00 | 0.00 | 38 | 1011.9 |
| 20260831194528 | 22 | 296 | 16.1 | 27.4 | 0.00 | 0.00 | 0.00 | 38 | 1011.9 |
| 20260831193019 | 22 | 282 | 12.9 | 27.4 | 0.00 | 0.00 | 0.00 | 38 | 1012.1 |
| 20260831191600 | 21 | 268 | 17.7 | 27.4 | 0.00 | 0.00 | 0.00 | 39 | 1012.2 |
| 20260831190114 | 22 | 246 | 14.5 | 25.7 | 0.00 | 0.00 | 0.00 | 40 | 1012.4 |
| 20260831184539 | 21 | 240 | 11.3 | 25.7 | 0.00 | 0.00 | 0.00 | 41 | 1012.5 |
| 20260831183037 | 21 | 310 | 17.7 | 25.7 | 0.00 | 0.00 | 0.00 | 41 | 1012.8 |
| 20260831181518 | 21 | 256 | 16.1 | 29.0 | 0.00 | 0.00 | 0.00 | 42 | 1012.7 |
| 20260831180015 | 21 | 296 | 11.3 | 27.4 | 0.00 | 0.00 | 0.00 | 42 | 1012.8 |
| 20260831174614 | 20 | 285 | 16.1 | 25.7 | 0.00 | 0.00 | 0.00 | 44 | 1012.8 |
| 20260831173058 | 20 | 312 | 19.3 | 32.2 | 0.00 | 0.00 | 0.00 | 45 | 1012.8 |
| 20260831171553 | 20 | 323 | 12.9 | 25.7 | 0.00 | 0.00 | 0.00 | 47 | 1012.8 |
| 20260831170035 | 19 | 318 | 14.5 | 27.4 | 0.00 | 0.00 | 0.00 | 47 | 1012.9 |
| 20260831164531 | 19 | 295 | 20.9 | 29.0 | 0.00 | 0.00 | 0.00 | 47 | 1013.0 |
| 20260831163010 | 18 | 333 | 16.1 | 32.2 | 0.00 | 0.00 | 0.00 | 49 | 1012.9 |